When you browse on this site, cookies collect data to enhance your experience and personalize the content and advertising you see.
Visit our Privacy Policy to learn more. By continuing to use the site, you agree to this use of cookies and data.
  • In Hungary
  • List of Countries
  • For 7 days
  • Water Temperature
  • Weather Map
  • News
  • Weather Widgets
  • user-avatar
    Login

    Hourly Weather Soldatskiy

    Today, 20 October, Sunday

    Time Temperature Precipitation Wind Pressure Humidity
    00:00 +15°C° 0 mm 2 mps 761 mmHg 67%
    01:00 +14°C° 0 mm 2 mps 761 mmHg 68%
    02:00 +14°C° 0 mm 2 mps 761 mmHg 70%
    03:00 +13°C° 0 mm 2 mps 761 mmHg 72%
    04:00 +13°C° 0 mm 2 mps 761 mmHg 73%
    05:00 +13°C° 0 mm 2 mps 761 mmHg 74%
    06:00 +12°C° 0 mm 2 mps 762 mmHg 75%
    07:00 +13°C° 0 mm 2 mps 762 mmHg 71%
    08:00 +14°C° 0 mm 3 mps 762 mmHg 68%
    09:00 +16°C° 0 mm 3 mps 762 mmHg 64%
    10:00 +18°C° 0 mm 3 mps 762 mmHg 58%
    11:00 +20°C° 0 mm 3 mps 762 mmHg 52%
    12:00 +22°C° 0 mm 4 mps 762 mmHg 45%
    13:00 +22°C° 0 mm 4 mps 762 mmHg 44%
    14:00 +23°C° 0 mm 4 mps 761 mmHg 43%
    15:00 +23°C° 0 mm 4 mps 761 mmHg 41%
    16:00 +21°C° 0 mm 4 mps 761 mmHg 47%
    17:00 +20°C° 0 mm 4 mps 762 mmHg 53%
    18:00 +18°C° 0 mm 4 mps 762 mmHg 59%
    19:00 +18°C° 0 mm 4 mps 762 mmHg 59%
    20:00 +17°C° 0 mm 4 mps 762 mmHg 59%
    21:00 +17°C° 0 mm 4 mps 762 mmHg 59%
    22:00 +15°C° 0 mm 4 mps 762 mmHg 60%
    23:00 +15°C° 0 mm 4 mps 762 mmHg 60%

    Tomorrow, 21 October, Monday

    Time Temperature Precipitation Wind Pressure Humidity
    00:00 +14°C° 0 mm 4 mps 762 mmHg 61%
    01:00 +14°C° 0 mm 4 mps 762 mmHg 63%
    02:00 +13°C° 0 mm 4 mps 762 mmHg 65%
    03:00 +13°C° 0 mm 4 mps 762 mmHg 67%
    04:00 +13°C° 0 mm 4 mps 762 mmHg 70%
    05:00 +12°C° 0 mm 4 mps 763 mmHg 72%
    06:00 +12°C° 0 mm 4 mps 763 mmHg 75%
    07:00 +13°C° 0 mm 5 mps 763 mmHg 69%
    08:00 +14°C° 0 mm 5 mps 763 mmHg 64%
    09:00 +15°C° 0 mm 6 mps 764 mmHg 59%
    10:00 +17°C° 0 mm 6 mps 763 mmHg 55%
    11:00 +19°C° 0 mm 6 mps 763 mmHg 50%
    12:00 +21°C° 0 mm 6 mps 763 mmHg 46%
    13:00 +21°C° 0 mm 6 mps 763 mmHg 45%
    14:00 +21°C° 0 mm 5 mps 763 mmHg 45%
    15:00 +22°C° 0 mm 5 mps 762 mmHg 44%
    16:00 +20°C° 0 mm 5 mps 762 mmHg 49%
    17:00 +19°C° 0 mm 4 mps 762 mmHg 54%
    18:00 +17°C° 0 mm 4 mps 762 mmHg 59%
    19:00 +17°C° 0 mm 4 mps 762 mmHg 61%
    20:00 +15°C° 0 mm 4 mps 762 mmHg 62%
    21:00 +14°C° 0 mm 4 mps 762 mmHg 64%
    22:00 +14°C° 0 mm 4 mps 762 mmHg 65%
    23:00 +13°C° 0 mm 3 mps 762 mmHg 67%

    Day after tomorrow, 22 October, Tuesday

    Time Temperature Precipitation Wind Pressure Humidity
    00:00 +13°C° 0 mm 3 mps 762 mmHg 68%
    01:00 +12°C° 0 mm 3 mps 762 mmHg 70%
    02:00 +12°C° 0 mm 3 mps 762 mmHg 71%
    03:00 +11°C° 0 mm 3 mps 762 mmHg 73%
    04:00 +11°C° 0 mm 3 mps 762 mmHg 75%
    05:00 +11°C° 0 mm 3 mps 763 mmHg 77%
    06:00 +10°C° 0 mm 3 mps 763 mmHg 79%
    07:00 +11°C° 0 mm 3 mps 763 mmHg 74%
    08:00 +12°C° 0 mm 3 mps 763 mmHg 69%
    09:00 +13°C° 0 mm 4 mps 763 mmHg 64%
    10:00 +15°C° 0 mm 4 mps 763 mmHg 57%
    11:00 +18°C° 0 mm 4 mps 763 mmHg 50%
    12:00 +19°C° 0 mm 4 mps 763 mmHg 43%
    13:00 +20°C° 0 mm 4 mps 762 mmHg 42%
    14:00 +20°C° 0 mm 4 mps 762 mmHg 40%
    15:00 +20°C° 0 mm 4 mps 762 mmHg 39%
    16:00 +19°C° 0 mm 3 mps 762 mmHg 43%
    17:00 +18°C° 0 mm 3 mps 762 mmHg 47%
    18:00 +16°C° 0 mm 3 mps 762 mmHg 51%
    19:00 +16°C° 0 mm 3 mps 762 mmHg 53%
    20:00 +14°C° 0 mm 3 mps 762 mmHg 56%
    21:00 +13°C° 0 mm 3 mps 762 mmHg 58%
    22:00 +14°C° 0 mm 2 mps 762 mmHg 59%
    23:00 +14°C° 0 mm 2 mps 762 mmHg 61%

    23 October, Wednesday

    Time Temperature Precipitation Wind Pressure Humidity
    00:00 +13°C° 0 mm 2 mps 762 mmHg 62%
    01:00 +13°C° 0 mm 2 mps 762 mmHg 63%
    02:00 +12°C° 0 mm 2 mps 762 mmHg 65%
    03:00 +12°C° 0 mm 2 mps 762 mmHg 66%
    04:00 +12°C° 0 mm 2 mps 762 mmHg 67%
    05:00 +12°C° 0 mm 2 mps 762 mmHg 68%
    06:00 +10°C° 0 mm 2 mps 762 mmHg 69%
    07:00 +13°C° 0 mm 2 mps 762 mmHg 65%
    08:00 +13°C° 0 mm 3 mps 762 mmHg 61%
    09:00 +14°C° 0 mm 3 mps 762 mmHg 57%
    10:00 +17°C° 0 mm 3 mps 762 mmHg 51%
    11:00 +18°C° 0 mm 3 mps 762 mmHg 45%
    12:00 +20°C° 0 mm 3 mps 762 mmHg 39%
    13:00 +20°C° 0 mm 4 mps 762 mmHg 39%
    14:00 +21°C° 0 mm 4 mps 761 mmHg 38%
    15:00 +21°C° 0 mm 4 mps 761 mmHg 37%
    16:00 +20°C° 0 mm 4 mps 761 mmHg 42%
    17:00 +18°C° 0 mm 3 mps 761 mmHg 46%
    18:00 +17°C° 0 mm 3 mps 761 mmHg 51%
    19:00 +16°C° 0 mm 3 mps 761 mmHg 52%
    20:00 +14°C° 0 mm 3 mps 761 mmHg 54%
    21:00 +14°C° 0 mm 3 mps 761 mmHg 55%
    22:00 +13°C° 0 mm 3 mps 761 mmHg 56%
    23:00 +13°C° 0 mm 3 mps 761 mmHg 57%

    24 October, Thursday

    Time Temperature Precipitation Wind Pressure Humidity
    00:00 +12°C° 0 mm 3 mps 761 mmHg 57%
    01:00 +12°C° 0 mm 3 mps 761 mmHg 58%
    02:00 +11°C° 0 mm 3 mps 761 mmHg 59%
    03:00 +11°C° 0 mm 3 mps 761 mmHg 60%
    04:00 +11°C° 0 mm 3 mps 761 mmHg 61%
    05:00 +10°C° 0 mm 3 mps 761 mmHg 63%
    06:00 +10°C° 0 mm 3 mps 760 mmHg 64%
    07:00 +11°C° 0 mm 4 mps 760 mmHg 60%
    08:00 +12°C° 0 mm 4 mps 760 mmHg 56%
    09:00 +13°C° 0 mm 5 mps 760 mmHg 53%
    10:00 +15°C° 0 mm 5 mps 760 mmHg 47%
    11:00 +17°C° 0 mm 5 mps 760 mmHg 41%
    12:00 +19°C° 0 mm 5 mps 760 mmHg 36%
    13:00 +20°C° 0 mm 5 mps 759 mmHg 35%
    14:00 +20°C° 0 mm 5 mps 759 mmHg 34%
    15:00 +20°C° 0 mm 5 mps 759 mmHg 34%
    16:00 +19°C° 0 mm 5 mps 759 mmHg 38%
    17:00 +17°C° 0 mm 4 mps 758 mmHg 42%
    18:00 +15°C° 0 mm 4 mps 758 mmHg 47%
    19:00 +14°C° 0 mm 4 mps 758 mmHg 50%
    20:00 +14°C° 0 mm 4 mps 759 mmHg 53%
    21:00 +13°C° 0 mm 4 mps 759 mmHg 57%
    22:00 +13°C° 0 mm 4 mps 758 mmHg 59%
    23:00 +12°C° 0 mm 4 mps 758 mmHg 61%

    25 October, Friday

    Time Temperature Precipitation Wind Pressure Humidity
    00:00 +12°C° 0 mm 5 mps 758 mmHg 63%
    01:00 +12°C° 0 mm 5 mps 758 mmHg 65%
    02:00 +10°C° 0 mm 5 mps 758 mmHg 67%
    03:00 +10°C° 0 mm 5 mps 758 mmHg 68%
    04:00 +10°C° 0 mm 5 mps 758 mmHg 71%
    05:00 +9°C° 0 mm 5 mps 758 mmHg 74%
    06:00 +9°C° 0 mm 5 mps 758 mmHg 76%
    07:00 +10°C° 0 mm 6 mps 758 mmHg 75%
    08:00 +10°C° 0 mm 6 mps 758 mmHg 74%
    09:00 +11°C° 0 mm 7 mps 758 mmHg 72%
    10:00 +14°C° 0 mm 7 mps 758 mmHg 67%
    11:00 +16°C° 0 mm 7 mps 758 mmHg 61%
    12:00 +17°C° 0 mm 7 mps 758 mmHg 55%
    13:00 +18°C° 0 mm 7 mps 758 mmHg 52%
    14:00 +19°C° 0 mm 6 mps 757 mmHg 50%
    15:00 +20°C° 0 mm 6 mps 757 mmHg 48%
    16:00 +19°C° 0 mm 6 mps 757 mmHg 52%
    17:00 +17°C° 0 mm 5 mps 757 mmHg 57%
    18:00 +15°C° 0 mm 5 mps 757 mmHg 62%
    19:00 +15°C° 0 mm 5 mps 757 mmHg 66%
    20:00 +15°C° 0 mm 5 mps 757 mmHg 70%
    21:00 +14°C° 0 mm 5 mps 757 mmHg 75%
    22:00 +14°C° 0 mm 5 mps 757 mmHg 77%
    23:00 +13°C° 0 mm 5 mps 757 mmHg 79%
    Show more